Regional Weather Roundup
Issued by NWS

Home | Current Version | Previous Version | Text Only | Print | Product List | Glossary Off
Versions: 1 2 3 4 5 6 7 8 9 10 11 12 13 14 15 16 17 18 19 20 21 22 23 24 25 26 27 28 29 30 31 32 33 34 35 36 37 38 39 40 41 42 43 44 45 46 47 48 49 50

000
ASUS45 KCYS 272010
RWRWY

WYOMING REGIONAL WEATHER ROUNDUP
NATIONAL WEATHER SERVICE CHEYENNE WY
200 PM MDT WED JUL 27 2016

NOTE:  "FAIR" INDICATES FEW OR NO CLOUDS BELOW 12,000 FEET
WITH NO SIGNIFICANT WEATHER AND/OR OBSTRUCTIONS TO VISIBILITY.

WYZ001-272100-
YELLOWSTONE NATIONAL PARK

CITY           SKY/WX    TMP DP  RH WIND       PRES   REMARKS
LK YELLOWSTONE   N/A     71  42  35 VRB5      30.39F
W YELLOWSTONE  NOT AVBL

$$
WYZ002>013-054>058-071-098>099-272100-
NORTHERN WYOMING

CITY           SKY/WX    TMP DP  RH WIND       PRES   REMARKS
JACKSON        SUNNY     82  30  15 S6G17     30.27F
CODY           FAIR      81  46  30 N8        30.19F
GREYBULL       FAIR      88  42  20 E8        30.09F
WORLAND        FAIR      87  41  19 VRB6      30.11F
SHERIDAN       FAIR      87  53  31 MISG      30.13F
BUFFALO        FAIR      84  50  30 N14G21    30.19F
GILLETTE       FAIR      85  53  33 NE12      30.15F
HULETT         FAIR      79  55  44 E13       30.20F
NEWCASTLE      FAIR      82  45  26 N7        30.15F

$$
WYZ014>020-022>026-101>103-272100-
CENTRAL WYOMING

CITY           SKY/WX    TMP DP  RH WIND       PRES   REMARKS
BIG PINEY      FAIR      83  32  16 S6        30.31F
PINEDALE       FAIR      81  28  15 N6        30.32F
DUBOIS         FAIR      82  25  12 NW15G22   30.29S
LANDER         FAIR      87  44  22 E7        30.19F
RIVERTON       FAIR      83  42  23 SE7       30.19F
CASPER         FAIR      87  43  21 VRB6      30.16F
DOUGLAS          N/A    N/A N/A N/A MISG      30.15F

$$
WYZ021-027>030-104>119-272100-
SOUTHERN WYOMING

CITY           SKY/WX    TMP DP  RH WIND       PRES   REMARKS
EVANSTON       FAIR      87  22   9 W21G33    30.34F
KEMMERER         N/A     84  18   8 W10G23    30.34F
FORT BRIDGER   FAIR      90  21   8 W18G31    30.35S
ROCK SPRINGS   FAIR      88  15   6 NW10G21   30.29F
DIXON          FAIR      89  28  11 SW8       30.28F
RAWLINS        FAIR      88  21   8 W15G24    30.27F
SARATOGA       FAIR      86  28  12 W15G31    30.30F
LARAMIE        FAIR      84  35  17 N12G17    30.29S
CHEYENNE       FAIR      83  51  33 VRB6      30.23F
TORRINGTON     FAIR      86  46  24 SE8       30.12F
PINE BLUFFS    FAIR      82  54  36 NE8       30.18F

$$



USA.gov is the U.S. government's official web portal to all federal, state and local government web resources and services.